QPF
0.01 0.01 0.02 0.02 0.01 0.00 0.00 0.00 0.00 0.00 0.00 0.00 0.00 0.00 0.00 0.00 0.00 0.00 0.00 0.00 0.00 0.00 0.00 0.00 0.01 0.01 0.01 0.01 0.02 0.01 0.01 0.01 0.01 0.01 0.01 0.01 0.01 0.01 0.01 0.01 0.01 0.01 0.01 0.01 0.01 0.01 0.01 0.01 0.00
0.01 0.01 0.02 0.04 0.02 0.00 0.00 0.00 0.00 0.00 0.00 0.00 0.00 0.00 0.00 0.00 0.00 0.00 0.00 0.00 0.00 0.00 0.00 0.00 0.01 0.02 0.02 0.02 0.02 0.01 0.01 0.01 0.02 0.02 0.01 0.02 0.01 0.01 0.01 0.01 0.01 0.01 0.01 0.01 0.01 0.01 0.01 0.00 0.00
0.02 0.02 0.02 0.03 0.02 0.00 0.00 0.00 0.00 0.00 0.00 0.00 0.00 0.00 0.00 0.00 0.00 0.00 0.00 0.00 0.00 0.00 0.00 0.01 0.01 0.02 0.02 0.02 0.03 0.02 0.01 0.02 0.02 0.02 0.02 0.02 0.02 0.02 0.01 0.01 0.01 0.01 0.01 0.00 0.01 0.01 0.01 0.00 0.00
0.03 0.05 0.04 0.02 0.01 0.00 0.00 0.00 0.00 0.00 0.00 0.00 0.00 0.00 0.00 0.00 0.00 0.00 0.00 0.00 0.00 0.00 0.00 0.01 0.01 0.02 0.03 0.03 0.03 0.03 0.02 0.02 0.02 0.02 0.02 0.02 0.02 0.02 0.01 0.02 0.01 0.01 0.01 0.01 0.01 0.01 0.00 0.00 0.00
0.03 0.04 0.05 0.03 0.01 0.00 0.00 0.00 0.00 0.00 0.00 0.00 0.00 0.00 0.00 0.00 0.00 0.00 0.00 0.00 0.00 0.00 0.00 0.01 0.02 0.02 0.03 0.04 0.04 0.03 0.03 0.03 0.02 0.02 0.02 0.02 0.02 0.02 0.02 0.01 0.01 0.01 0.01 0.01 0.01 0.00 0.00 0.00 0.00
0.03 0.03 0.03 0.03 0.02 0.01 0.00 0.00 0.00 0.00 0.00 0.00 0.00 0.00 0.00 0.00 0.00 0.00 0.00 0.00 0.00 0.00 0.00 0.01 0.02 0.03 0.04 0.06 0.06 0.05 0.04 0.04 0.03 0.02 0.02 0.02 0.02 0.02 0.02 0.01 0.01 0.01 0.01 0.01 0.01 0.00 0.00 0.00 0.00
0.02 0.02 0.01 0.02 0.02 0.01 0.00 0.00 0.01 0.01 0.00 0.00 0.00 0.00 0.00 0.00 0.00 0.00 0.00 0.00 0.00 0.00 0.01 0.02 0.04 0.05 0.06 0.07 0.07 0.08 0.06 0.05 0.05 0.04 0.03 0.03 0.02 0.02 0.02 0.01 0.01 0.01 0.01 0.01 0.01 0.00 0.00 0.00 0.00
0.02 0.02 0.01 0.01 0.01 0.01 0.01 0.01 0.01 0.01 0.01 0.00 0.00 0.00 0.00 0.00 0.00 0.00 0.00 0.00 0.00 0.01 0.01 0.03 0.05 0.07 0.08 0.10 0.09 0.10 0.09 0.08 0.06 0.06 0.05 0.03 0.02 0.02 0.02 0.01 0.01 0.01 0.01 0.01 0.01 0.01 0.00 0.00 0.00
0.04 0.04 0.02 0.00 0.01 0.01 0.01 0.02 0.01 0.01 0.02 0.01 0.01 0.00 0.00 0.00 0.00 0.00 0.00 0.00 0.01 0.01 0.02 0.03 0.07 0.10 0.12 0.13 0.12 0.13 0.12 0.11 0.09 0.08 0.07 0.04 0.02 0.02 0.01 0.01 0.01 0.01 0.01 0.01 0.01 0.01 0.00 0.00 0.00
0.04 0.04 0.02 0.01 0.00 0.00 0.01 0.02 0.03 0.03 0.03 0.02 0.02 0.01 0.01 0.00 0.00 0.00 0.00 0.01 0.01 0.02 0.02 0.04 0.08 0.11 0.14 0.15 0.14 0.17 0.16 0.13 0.11 0.09 0.06 0.04 0.03 0.02 0.01 0.01 0.01 0.01 0.01 0.01 0.01 0.01 0.00 0.00 0.00
0.04 0.03 0.02 0.01 0.01 0.01 0.01 0.01 0.02 0.03 0.04 0.03 0.03 0.02 0.01 0.00 0.00 0.00 0.00 0.00 0.01 0.02 0.03 0.04 0.08 0.12 0.16 0.17 0.16 0.17 0.17 0.14 0.11 0.09 0.06 0.04 0.03 0.02 0.01 0.01 0.01 0.01 0.01 0.01 0.01 0.01 0.00 0.00 0.00
0.03 0.02 0.02 0.02 0.02 0.01 0.01 0.01 0.02 0.02 0.03 0.03 0.04 0.03 0.02 0.01 0.01 0.01 0.00 0.00 0.01 0.04 0.05 0.05 0.08 0.13 0.15 0.17 0.20 0.20 0.18 0.15 0.12 0.11 0.08 0.05 0.03 0.02 0.01 0.01 0.01 0.01 0.01 0.01 0.01 0.00 0.00 0.00 0.00
0.03 0.02 0.02 0.01 0.02 0.02 0.01 0.01 0.01 0.01 0.01 0.02 0.03 0.03 0.02 0.02 0.01 0.01 0.00 0.00 0.01 0.04 0.07 0.08 0.09 0.12 0.14 0.17 0.22 0.25 0.21 0.16 0.12 0.12 0.11 0.07 0.04 0.02 0.01 0.01 0.00 0.00 0.00 0.01 0.00 0.00 0.00 0.00 0.00
0.03 0.03 0.02 0.02 0.02 0.02 0.02 0.01 0.01 0.01 0.01 0.02 0.02 0.02 0.03 0.03 0.02 0.01 0.01 0.00 0.01 0.03 0.06 0.10 0.11 0.13 0.15 0.17 0.20 0.24 0.27 0.23 0.17 0.13 0.10 0.08 0.05 0.03 0.02 0.01 0.01 0.00 0.00 0.00 0.00 0.00 0.00 0.00 0.00
0.02 0.02 0.02 0.01 0.01 0.02 0.02 0.02 0.01 0.01 0.01 0.02 0.03 0.02 0.02 0.02 0.02 0.01 0.01 0.01 0.00 0.02 0.05 0.10 0.12 0.14 0.17 0.19 0.22 0.22 0.27 0.28 0.22 0.18 0.15 0.11 0.06 0.03 0.02 0.02 0.01 0.00 0.00 0.00 0.00 0.00 0.00 0.00 0.00
0.04 0.04 0.03 0.02 0.01 0.01 0.03 0.03 0.01 0.00 0.01 0.02 0.03 0.03 0.02 0.01 0.02 0.01 0.01 0.01 0.01 0.01 0.04 0.09 0.11 0.13 0.18 0.21 0.24 0.24 0.24 0.26 0.24 0.18 0.18 0.16 0.12 0.08 0.06 0.03 0.01 0.00 0.00 0.00 0.00 0.00 0.00 0.00 0.00
0.04 0.05 0.04 0.02 0.02 0.01 0.02 0.03 0.01 0.00 0.01 0.01 0.02 0.03 0.02 0.02 0.01 0.01 0.01 0.01 0.01 0.01 0.03 0.09 0.13 0.13 0.15 0.21 0.24 0.27 0.28 0.26 0.25 0.22 0.17 0.14 0.11 0.09 0.07 0.05 0.03 0.01 0.00 0.00 0.00 0.00 0.00 0.00 0.00
0.04 0.03 0.02 0.02 0.02 0.03 0.02 0.01 0.01 0.01 0.01 0.01 0.01 0.02 0.03 0.02 0.01 0.01 0.01 0.01 0.01 0.02 0.02 0.07 0.13 0.13 0.14 0.18 0.24 0.27 0.31 0.31 0.26 0.24 0.21 0.16 0.09 0.06 0.05 0.04 0.03 0.02 0.01 0.01 0.00 0.00 0.00 0.00 0.00
0.02 0.03 0.04 0.02 0.02 0.03 0.02 0.01 0.00 0.00 0.01 0.01 0.01 0.01 0.02 0.02 0.01 0.01 0.01 0.02 0.02 0.02 0.03 0.06 0.14 0.16 0.17 0.20 0.21 0.23 0.25 0.31 0.29 0.23 0.23 0.21 0.14 0.09 0.07 0.06 0.04 0.03 0.02 0.01 0.01 0.00 0.00 0.00 0.00
0.02 0.02 0.03 0.02 0.02 0.03 0.02 0.01 0.01 0.00 0.00 0.01 0.01 0.01 0.01 0.01 0.01 0.02 0.01 0.01 0.02 0.02 0.02 0.04 0.12 0.18 0.19 0.19 0.20 0.20 0.21 0.25 0.31 0.25 0.22 0.22 0.18 0.13 0.09 0.07 0.06 0.05 0.04 0.03 0.02 0.01 0.00 0.00 0.00
0.02 0.02 0.02 0.03 0.03 0.02 0.02 0.01 0.01 0.00 0.00 0.00 0.01 0.01 0.01 0.01 0.01 0.01 0.01 0.01 0.01 0.02 0.03 0.03 0.07 0.15 0.18 0.20 0.23 0.23 0.24 0.28 0.32 0.31 0.24 0.20 0.19 0.16 0.12 0.08 0.05 0.04 0.04 0.04 0.03 0.02 0.01 0.00 0.00
0.02 0.01 0.01 0.02 0.04 0.03 0.03 0.02 0.00 0.00 0.00 0.00 0.01 0.01 0.01 0.01 0.01 0.01 0.00 0.01 0.01 0.02 0.03 0.04 0.06 0.11 0.16 0.20 0.24 0.26 0.24 0.24 0.28 0.29 0.26 0.20 0.16 0.17 0.14 0.10 0.07 0.04 0.03 0.03 0.03 0.02 0.01 0.00 0.00
0.02 0.01 0.01 0.01 0.02 0.03 0.02 0.02 0.01 0.00 0.00 0.01 0.01 0.01 0.01 0.01 0.00 0.00 0.00 0.00 0.01 0.02 0.05 0.06 0.07 0.09 0.14 0.17 0.22 0.26 0.24 0.20 0.21 0.27 0.28 0.24 0.18 0.14 0.14 0.11 0.10 0.06 0.04 0.03 0.02 0.02 0.01 0.01 0.00
0.02 0.01 0.01 0.01 0.02 0.03 0.01 0.01 0.01 0.01 0.01 0.01 0.00 0.00 0.01 0.01 0.01 0.00 0.01 0.01 0.01 0.03 0.06 0.09 0.08 0.08 0.12 0.15 0.18 0.23 0.26 0.23 0.22 0.23 0.27 0.30 0.24 0.17 0.13 0.11 0.10 0.09 0.05 0.03 0.02 0.02 0.01 0.01 0.01
0.02 0.03 0.04 0.04 0.04 0.02 0.01 0.01 0.01 0.01 0.01 0.01 0.01 0.01 0.01 0.02 0.01 0.01 0.02 0.02 0.02 0.03 0.05 0.09 0.10 0.09 0.10 0.15 0.17 0.18 0.23 0.24 0.23 0.21 0.21 0.23 0.26 0.23 0.18 0.13 0.11 0.09 0.07 0.05 0.04 0.02 0.01 0.01 0.01
0.01 0.04 0.05 0.05 0.02 0.01 0.01 0.01 0.02 0.00 0.00 0.00 0.01 0.01 0.01 0.02 0.02 0.01 0.01 0.02 0.03 0.03 0.04 0.08 0.12 0.14 0.13 0.14 0.18 0.17 0.19 0.23 0.23 0.21 0.20 0.18 0.19 0.20 0.19 0.17 0.12 0.10 0.08 0.06 0.05 0.04 0.02 0.02 0.01
0.01 0.02 0.02 0.03 0.02 0.01 0.01 0.02 0.02 0.00 0.00 0.00 0.00 0.01 0.01 0.02 0.02 0.02 0.01 0.02 0.03 0.04 0.04 0.06 0.10 0.15 0.16 0.15 0.18 0.20 0.19 0.22 0.22 0.20 0.20 0.18 0.17 0.17 0.19 0.19 0.16 0.11 0.08 0.07 0.04 0.03 0.03 0.02 0.02
0.00 0.01 0.02 0.04 0.04 0.02 0.01 0.02 0.02 0.01 0.00 0.00 0.00 0.01 0.01 0.02 0.03 0.03 0.02 0.02 0.03 0.03 0.03 0.04 0.07 0.13 0.19 0.18 0.17 0.20 0.20 0.21 0.22 0.20 0.17 0.16 0.16 0.15 0.18 0.19 0.18 0.15 0.11 0.08 0.06 0.04 0.02 0.02 0.02
0.00 0.01 0.02 0.03 0.03 0.03 0.02 0.03 0.02 0.01 0.00 0.00 0.00 0.01 0.01 0.02 0.04 0.04 0.03 0.02 0.02 0.03 0.03 0.03 0.05 0.10 0.18 0.23 0.19 0.18 0.20 0.19 0.21 0.22 0.17 0.13 0.14 0.13 0.14 0.17 0.18 0.16 0.14 0.11 0.07 0.04 0.02 0.02 0.01
0.00 0.01 0.02 0.04 0.03 0.03 0.03 0.02 0.01 0.00 0.00 0.00 0.00 0.01 0.01 0.02 0.03 0.05 0.07 0.04 0.02 0.04 0.04 0.04 0.05 0.08 0.14 0.22 0.23 0.20 0.19 0.19 0.19 0.19 0.18 0.15 0.13 0.12 0.10 0.10 0.15 0.17 0.15 0.14 0.11 0.06 0.03 0.02 0.01
MSLP
1011.41 1011.62 1011.86 1012.01 1011.99 1011.77 1011.33 1010.73 1010.05 1009.41 1008.88 1008.53 1008.36 1008.35 1008.40 1008.43 1008.36 1008.14 1007.79 1007.35 1006.89 1006.50 1006.25 1006.18 1006.27 1006.50 1006.79 1007.09 1007.36 1007.58 1007.77 1007.96 1008.19 1008.49 1008.87 1009.32 1009.81 1010.30 1010.75 1011.14 1011.47 1011.76 1012.01 1012.27 1012.55 1012.84 1013.14 1013.42 1013.67
1011.57 1011.76 1011.93 1012.01 1011.91 1011.60 1011.10 1010.45 1009.74 1009.08 1008.56 1008.22 1008.07 1008.05 1008.10 1008.11 1008.02 1007.78 1007.41 1006.97 1006.52 1006.16 1005.94 1005.90 1006.03 1006.28 1006.60 1006.93 1007.22 1007.47 1007.68 1007.91 1008.17 1008.51 1008.92 1009.39 1009.88 1010.36 1010.80 1011.17 1011.49 1011.77 1012.04 1012.32 1012.63 1012.96 1013.29 1013.61 1013.87
1011.70 1011.84 1011.94 1011.93 1011.76 1011.40 1010.85 1010.19 1009.50 1008.87 1008.37 1008.06 1007.91 1007.88 1007.89 1007.84 1007.69 1007.40 1006.99 1006.52 1006.07 1005.72 1005.53 1005.52 1005.69 1005.97 1006.32 1006.67 1006.99 1007.26 1007.52 1007.78 1008.09 1008.46 1008.90 1009.39 1009.89 1010.37 1010.80 1011.16 1011.47 1011.76 1012.05 1012.36 1012.71 1013.09 1013.47 1013.81 1014.10
1011.81 1011.89 1011.92 1011.84 1011.62 1011.22 1010.67 1010.04 1009.39 1008.82 1008.39 1008.10 1007.96 1007.89 1007.84 1007.72 1007.48 1007.11 1006.64 1006.14 1005.68 1005.34 1005.17 1005.19 1005.37 1005.67 1006.02 1006.38 1006.71 1007.00 1007.28 1007.59 1007.94 1008.36 1008.84 1009.35 1009.87 1010.35 1010.78 1011.14 1011.46 1011.76 1012.08 1012.43 1012.83 1013.25 1013.67 1014.04 1014.35
1011.90 1011.94 1011.92 1011.79 1011.53 1011.13 1010.62 1010.04 1009.47 1008.98 1008.61 1008.36 1008.22 1008.12 1008.00 1007.80 1007.47 1007.02 1006.50 1005.97 1005.50 1005.16 1005.00 1005.02 1005.20 1005.47 1005.80 1006.13 1006.44 1006.73 1007.02 1007.35 1007.74 1008.20 1008.72 1009.28 1009.82 1010.33 1010.77 1011.15 1011.48 1011.81 1012.15 1012.54 1012.97 1013.43 1013.87 1014.27 1014.59
1012.01 1012.02 1011.97 1011.82 1011.56 1011.18 1010.72 1010.21 1009.74 1009.33 1009.03 1008.82 1008.68 1008.54 1008.36 1008.09 1007.69 1007.19 1006.63 1006.08 1005.61 1005.27 1005.10 1005.10 1005.23 1005.45 1005.70 1005.96 1006.21 1006.46 1006.73 1007.07 1007.49 1008.00 1008.57 1009.17 1009.77 1010.31 1010.79 1011.19 1011.55 1011.90 1012.27 1012.68 1013.13 1013.60 1014.06 1014.47 1014.79
1012.15 1012.14 1012.08 1011.93 1011.69 1011.35 1010.95 1010.53 1010.14 1009.81 1009.57 1009.39 1009.25 1009.09 1008.87 1008.55 1008.11 1007.59 1007.02 1006.48 1006.01 1005.68 1005.49 1005.44 1005.49 1005.61 1005.75 1005.89 1006.03 1006.20 1006.43 1006.76 1007.19 1007.74 1008.36 1009.02 1009.67 1010.27 1010.80 1011.24 1011.63 1012.01 1012.40 1012.82 1013.28 1013.75 1014.20 1014.60 1014.92
1012.31 1012.31 1012.25 1012.11 1011.89 1011.60 1011.26 1010.91 1010.59 1010.33 1010.14 1009.99 1009.84 1009.67 1009.42 1009.08 1008.64 1008.12 1007.58 1007.06 1006.63 1006.30 1006.08 1005.96 1005.92 1005.90 1005.89 1005.88 1005.89 1005.95 1006.10 1006.39 1006.82 1007.40 1008.07 1008.80 1009.52 1010.18 1010.76 1011.26 1011.69 1012.10 1012.50 1012.93 1013.38 1013.84 1014.28 1014.66 1014.96
1012.49 1012.49 1012.43 1012.31 1012.11 1011.86 1011.57 1011.28 1011.01 1010.80 1010.63 1010.49 1010.35 1010.17 1009.91 1009.57 1009.15 1008.68 1008.19 1007.72 1007.33 1007.00 1006.76 1006.57 1006.41 1006.24 1006.06 1005.88 1005.73 1005.66 1005.72 1005.96 1006.38 1006.97 1007.68 1008.47 1009.25 1009.99 1010.64 1011.20 1011.68 1012.12 1012.54 1012.97 1013.41 1013.86 1014.27 1014.64 1014.93
1012.67 1012.66 1012.60 1012.48 1012.30 1012.07 1011.81 1011.56 1011.33 1011.14 1010.98 1010.84 1010.69 1010.50 1010.25 1009.93 1009.56 1009.14 1008.72 1008.32 1007.97 1007.67 1007.40 1007.13 1006.86 1006.54 1006.20 1005.84 1005.54 1005.33 1005.29 1005.46 1005.85 1006.44 1007.19 1008.02 1008.87 1009.68 1010.40 1011.03 1011.57 1012.05 1012.50 1012.94 1013.37 1013.80 1014.20 1014.55 1014.83
1012.83 1012.79 1012.71 1012.58 1012.41 1012.19 1011.95 1011.71 1011.49 1011.31 1011.14 1010.99 1010.83 1010.63 1010.39 1010.10 1009.78 1009.43 1009.08 1008.75 1008.45 1008.17 1007.88 1007.56 1007.18 1006.74 1006.25 1005.75 1005.30 1004.97 1004.83 1004.92 1005.28 1005.85 1006.61 1007.48 1008.38 1009.25 1010.05 1010.74 1011.34 1011.87 1012.36 1012.82 1013.26 1013.68 1014.07 1014.41 1014.69
1012.95 1012.88 1012.77 1012.62 1012.43 1012.21 1011.97 1011.73 1011.51 1011.31 1011.13 1010.96 1010.78 1010.58 1010.34 1010.08 1009.80 1009.51 1009.23 1008.96 1008.71 1008.45 1008.15 1007.79 1007.34 1006.81 1006.21 1005.60 1005.04 1004.61 1004.38 1004.41 1004.71 1005.26 1006.01 1006.89 1007.83 1008.75 1009.60 1010.36 1011.02 1011.61 1012.14 1012.63 1013.09 1013.52 1013.91 1014.25 1014.54
1013.05 1012.92 1012.77 1012.58 1012.37 1012.14 1011.89 1011.65 1011.42 1011.20 1011.00 1010.80 1010.60 1010.38 1010.15 1009.90 1009.65 1009.40 1009.17 1008.96 1008.74 1008.50 1008.21 1007.83 1007.35 1006.77 1006.11 1005.43 1004.81 1004.31 1004.02 1003.99 1004.23 1004.74 1005.46 1006.33 1007.27 1008.21 1009.11 1009.92 1010.65 1011.29 1011.86 1012.39 1012.88 1013.33 1013.74 1014.09 1014.40
1013.11 1012.93 1012.74 1012.52 1012.29 1012.04 1011.78 1011.52 1011.27 1011.03 1010.80 1010.57 1010.35 1010.11 1009.87 1009.63 1009.40 1009.18 1008.98 1008.79 1008.60 1008.38 1008.10 1007.73 1007.25 1006.67 1006.00 1005.32 1004.67 1004.15 1003.81 1003.73 1003.92 1004.36 1005.03 1005.86 1006.77 1007.72 1008.63 1009.48 1010.24 1010.94 1011.56 1012.13 1012.65 1013.13 1013.56 1013.94 1014.28
1013.16 1012.94 1012.71 1012.47 1012.21 1011.95 1011.67 1011.40 1011.12 1010.85 1010.59 1010.34 1010.08 1009.83 1009.59 1009.35 1009.12 1008.92 1008.74 1008.57 1008.39 1008.19 1007.93 1007.58 1007.13 1006.58 1005.95 1005.30 1004.68 1004.16 1003.81 1003.68 1003.81 1004.18 1004.77 1005.52 1006.39 1007.30 1008.20 1009.06 1009.86 1010.59 1011.25 1011.86 1012.42 1012.93 1013.39 1013.80 1014.16
1013.20 1012.96 1012.71 1012.45 1012.18 1011.90 1011.60 1011.30 1010.99 1010.68 1010.39 1010.10 1009.82 1009.56 1009.32 1009.09 1008.87 1008.68 1008.51 1008.35 1008.19 1008.00 1007.76 1007.45 1007.04 1006.55 1006.00 1005.40 1004.83 1004.34 1004.00 1003.84 1003.90 1004.19 1004.68 1005.34 1006.12 1006.97 1007.84 1008.69 1009.49 1010.25 1010.95 1011.59 1012.18 1012.72 1013.22 1013.66 1014.06
1013.23 1012.99 1012.74 1012.49 1012.21 1011.91 1011.58 1011.23 1010.86 1010.50 1010.16 1009.83 1009.54 1009.28 1009.05 1008.84 1008.66 1008.49 1008.34 1008.20 1008.05 1007.87 1007.66 1007.38 1007.03 1006.61 1006.13 1005.62 1005.11 1004.67 1004.33 1004.14 1004.14 1004.33 1004.72 1005.26 1005.94 1006.71 1007.52 1008.34 1009.14 1009.91 1010.63 1011.31 1011.93 1012.51 1013.03 1013.51 1013.94
1013.25 1013.04 1012.82 1012.58 1012.29 1011.96 1011.57 1011.15 1010.70 1010.26 1009.85 1009.48 1009.17 1008.92 1008.73 1008.58 1008.45 1008.34 1008.24 1008.13 1008.00 1007.84 1007.64 1007.39 1007.09 1006.73 1006.32 1005.89 1005.45 1005.05 1004.72 1004.51 1004.45 1004.54 1004.81 1005.24 1005.80 1006.47 1007.21 1007.99 1008.78 1009.55 1010.30 1011.00 1011.66 1012.26 1012.83 1013.34 1013.81
1013.25 1013.10 1012.93 1012.72 1012.42 1012.04 1011.57 1011.04 1010.47 1009.92 1009.41 1008.99 1008.66 1008.44 1008.30 1008.24 1008.21 1008.19 1008.17 1008.11 1008.02 1007.88 1007.69 1007.46 1007.18 1006.86 1006.51 1006.13 1005.75 1005.39 1005.07 1004.84 1004.71 1004.72 1004.87 1005.18 1005.62 1006.20 1006.86 1007.60 1008.37 1009.15 1009.92 1010.65 1011.34 1011.99 1012.58 1013.13 1013.64
1013.25 1013.19 1013.09 1012.90 1012.59 1012.13 1011.55 1010.87 1010.14 1009.43 1008.81 1008.31 1007.96 1007.77 1007.72 1007.77 1007.88 1008.00 1008.09 1008.11 1008.07 1007.96 1007.78 1007.55 1007.27 1006.97 1006.64 1006.29 1005.94 1005.61 1005.29 1005.04 1004.86 1004.78 1004.84 1005.03 1005.37 1005.85 1006.45 1007.14 1007.89 1008.68 1009.47 1010.24 1010.98 1011.66 1012.30 1012.89 1013.42
1013.25 1013.31 1013.29 1013.13 1012.79 1012.25 1011.52 1010.66 1009.73 1008.83 1008.05 1007.45 1007.08 1006.93 1006.98 1007.17 1007.44 1007.72 1007.95 1008.09 1008.12 1008.04 1007.86 1007.61 1007.31 1006.98 1006.65 1006.31 1005.97 1005.64 1005.33 1005.05 1004.83 1004.69 1004.66 1004.76 1005.01 1005.41 1005.94 1006.60 1007.34 1008.14 1008.96 1009.77 1010.55 1011.29 1011.97 1012.59 1013.16
1013.30 1013.48 1013.55 1013.43 1013.05 1012.41 1011.51 1010.44 1009.28 1008.17 1007.22 1006.51 1006.09 1005.97 1006.12 1006.46 1006.91 1007.37 1007.76 1008.02 1008.12 1008.07 1007.88 1007.60 1007.26 1006.89 1006.53 1006.17 1005.83 1005.50 1005.18 1004.89 1004.64 1004.45 1004.36 1004.38 1004.56 1004.89 1005.37 1005.99 1006.73 1007.54 1008.39 1009.25 1010.07 1010.85 1011.58 1012.23 1012.83
1013.40 1013.72 1013.88 1013.79 1013.38 1012.63 1011.56 1010.28 1008.89 1007.56 1006.42 1005.58 1005.11 1005.01 1005.24 1005.72 1006.33 1006.96 1007.50 1007.88 1008.06 1008.04 1007.84 1007.52 1007.12 1006.70 1006.29 1005.90 1005.55 1005.21 1004.90 1004.60 1004.33 1004.12 1003.97 1003.94 1004.05 1004.32 1004.76 1005.35 1006.08 1006.90 1007.78 1008.67 1009.54 1010.37 1011.13 1011.82 1012.44
1013.58 1014.02 1014.27 1014.21 1013.77 1012.92 1011.70 1010.22 1008.63 1007.09 1005.77 1004.80 1004.26 1004.16 1004.45 1005.03 1005.78 1006.55 1007.22 1007.70 1007.94 1007.94 1007.73 1007.37 1006.92 1006.45 1005.98 1005.57 1005.19 1004.85 1004.54 1004.25 1003.98 1003.74 1003.57 1003.49 1003.55 1003.76 1004.15 1004.71 1005.42 1006.24 1007.14 1008.06 1008.97 1009.84 1010.63 1011.35 1011.99
1013.81 1014.36 1014.68 1014.65 1014.19 1013.26 1011.93 1010.30 1008.53 1006.82 1005.35 1004.26 1003.65 1003.52 1003.83 1004.47 1005.31 1006.17 1006.93 1007.48 1007.76 1007.77 1007.56 1007.16 1006.67 1006.15 1005.65 1005.21 1004.83 1004.49 1004.19 1003.91 1003.64 1003.39 1003.19 1003.07 1003.07 1003.23 1003.57 1004.09 1004.77 1005.58 1006.48 1007.42 1008.36 1009.25 1010.08 1010.82 1011.48
1014.04 1014.66 1015.03 1015.02 1014.55 1013.58 1012.18 1010.46 1008.59 1006.77 1005.19 1004.01 1003.33 1003.16 1003.45 1004.10 1004.96 1005.86 1006.65 1007.23 1007.53 1007.55 1007.32 1006.91 1006.39 1005.84 1005.33 1004.89 1004.50 1004.18 1003.89 1003.62 1003.35 1003.09 1002.86 1002.70 1002.65 1002.74 1003.01 1003.48 1004.12 1004.91 1005.80 1006.75 1007.71 1008.63 1009.48 1010.24 1010.92
1014.19 1014.82 1015.21 1015.21 1014.74 1013.78 1012.36 1010.62 1008.72 1006.86 1005.24 1004.01 1003.28 1003.06 1003.30 1003.91 1004.73 1005.61 1006.38 1006.95 1007.24 1007.26 1007.02 1006.61 1006.09 1005.56 1005.05 1004.61 1004.25 1003.94 1003.66 1003.39 1003.11 1002.83 1002.57 1002.35 1002.24 1002.27 1002.47 1002.88 1003.47 1004.22 1005.10 1006.05 1007.02 1007.96 1008.83 1009.62 1010.31
1014.16 1014.76 1015.12 1015.11 1014.65 1013.71 1012.34 1010.65 1008.80 1006.99 1005.40 1004.17 1003.41 1003.15 1003.33 1003.86 1004.60 1005.40 1006.11 1006.63 1006.89 1006.90 1006.67 1006.28 1005.79 1005.28 1004.81 1004.40 1004.05 1003.76 1003.49 1003.21 1002.91 1002.59 1002.27 1002.00 1001.82 1001.77 1001.90 1002.24 1002.79 1003.50 1004.36 1005.30 1006.28 1007.24 1008.14 1008.95 1009.67
1013.87 1014.37 1014.66 1014.61 1014.16 1013.27 1011.99 1010.42 1008.70 1007.01 1005.52 1004.36 1003.61 1003.32 1003.43 1003.86 1004.49 1005.18 1005.80 1006.25 1006.48 1006.47 1006.26 1005.91 1005.47 1005.01 1004.59 1004.22 1003.90 1003.62 1003.33 1003.03 1002.69 1002.32 1001.94 1001.59 1001.33 1001.22 1001.28 1001.56 1002.05 1002.74 1003.57 1004.52 1005.50 1006.47 1007.40 1008.24 1008.99
1013.29 1013.64 1013.80 1013.69 1013.23 1012.40 1011.24 1009.84 1008.31 1006.81 1005.48 1004.44 1003.75 1003.46 1003.51 1003.85 1004.36 1004.92 1005.43 1005.80 1005.99 1005.98 1005.80 1005.50 1005.13 1004.74 1004.38 1004.05 1003.76 1003.47 1003.16 1002.81 1002.41 1001.97 1001.52 1001.10 1000.77 1000.58 1000.59 1000.82 1001.27 1001.93 1002.75 1003.69 1004.68 1005.68 1006.62 1007.49 1008.27
Thickness
5711 5714 5716 5709 5696 5692 5701 5724 5739 5746 5753 5763 5766 5762 5757 5756 5754 5747 5769 5786 5789 5788 5785 5780 5778 5776 5775 5774 5772 5771 5769 5767 5766 5764 5762 5761 5759 5758 5756 5755 5753 5752 5750 5748 5747 5745 5743 5740 5738
5707 5711 5706 5697 5685 5686 5705 5725 5731 5741 5752 5758 5758 5755 5751 5754 5767 5765 5770 5780 5784 5783 5780 5775 5772 5771 5769 5768 5767 5766 5764 5763 5761 5760 5758 5757 5755 5754 5752 5751 5749 5748 5746 5744 5743 5741 5738 5736 5734
5701 5704 5693 5687 5687 5693 5709 5729 5734 5743 5750 5748 5745 5748 5748 5750 5762 5763 5768 5775 5776 5776 5775 5771 5767 5765 5764 5763 5762 5761 5759 5758 5756 5755 5754 5753 5751 5750 5748 5746 5745 5743 5742 5740 5738 5736 5734 5732 5730
5694 5689 5685 5681 5689 5705 5714 5723 5729 5731 5737 5740 5736 5734 5746 5757 5759 5761 5767 5769 5767 5767 5768 5765 5762 5760 5758 5757 5756 5755 5754 5753 5752 5750 5749 5748 5746 5745 5743 5741 5740 5738 5737 5735 5734 5732 5730 5728 5726
5685 5677 5670 5675 5687 5702 5713 5720 5723 5719 5720 5726 5727 5723 5730 5748 5756 5758 5758 5758 5757 5758 5760 5758 5756 5754 5752 5751 5751 5749 5749 5748 5747 5745 5744 5743 5741 5740 5738 5736 5735 5733 5732 5730 5729 5727 5725 5723 5721
5669 5669 5663 5671 5686 5699 5706 5712 5712 5709 5711 5716 5715 5714 5722 5737 5742 5745 5748 5748 5749 5749 5751 5751 5749 5748 5746 5746 5745 5744 5743 5742 5741 5740 5738 5737 5736 5734 5732 5731 5729 5728 5727 5725 5724 5722 5721 5719 5717
5656 5656 5659 5668 5675 5684 5695 5702 5699 5696 5698 5704 5707 5702 5712 5723 5730 5735 5737 5738 5739 5740 5740 5741 5741 5740 5740 5739 5739 5738 5737 5736 5736 5735 5733 5731 5730 5728 5727 5725 5724 5723 5722 5720 5719 5717 5716 5714 5712
5651 5646 5652 5659 5663 5672 5684 5688 5690 5686 5687 5697 5698 5691 5696 5709 5719 5722 5723 5725 5726 5728 5729 5731 5733 5733 5733 5732 5732 5732 5731 5731 5730 5729 5727 5725 5724 5722 5721 5720 5718 5717 5716 5715 5714 5712 5710 5709 5707
5639 5630 5639 5648 5651 5660 5670 5669 5673 5678 5677 5681 5685 5686 5691 5699 5704 5704 5705 5707 5710 5714 5717 5720 5723 5725 5725 5725 5725 5725 5725 5724 5723 5722 5721 5719 5717 5716 5715 5714 5713 5711 5711 5710 5708 5707 5705 5703 5702
5624 5620 5633 5642 5644 5646 5651 5651 5653 5655 5657 5661 5667 5673 5679 5681 5684 5686 5688 5690 5695 5700 5706 5710 5713 5715 5716 5717 5717 5718 5717 5717 5717 5716 5715 5714 5713 5711 5710 5708 5707 5706 5705 5704 5703 5701 5700 5698 5698
5616 5615 5624 5629 5632 5633 5633 5635 5638 5636 5639 5645 5649 5654 5660 5663 5667 5671 5676 5680 5684 5690 5695 5700 5703 5706 5707 5709 5710 5711 5711 5710 5711 5710 5710 5709 5708 5706 5704 5702 5701 5700 5699 5698 5697 5696 5695 5694 5694
5606 5610 5613 5616 5618 5617 5618 5621 5622 5623 5629 5636 5639 5641 5644 5646 5651 5657 5663 5668 5674 5679 5684 5689 5693 5695 5698 5700 5703 5705 5705 5705 5705 5706 5705 5705 5703 5701 5699 5698 5696 5695 5695 5693 5692 5692 5692 5691 5690
5595 5599 5602 5603 5604 5604 5606 5609 5609 5614 5620 5623 5625 5627 5629 5634 5638 5644 5651 5658 5662 5667 5673 5678 5682 5685 5689 5692 5694 5697 5698 5699 5700 5701 5701 5700 5698 5696 5695 5694 5692 5692 5691 5689 5688 5688 5688 5688 5687
5589 5589 5589 5590 5591 5593 5593 5599 5598 5607 5610 5610 5611 5613 5617 5621 5627 5631 5637 5643 5650 5656 5662 5667 5671 5675 5679 5683 5687 5690 5692 5694 5694 5695 5696 5696 5694 5692 5691 5689 5688 5688 5687 5685 5685 5685 5684 5683 5683
5578 5574 5579 5584 5584 5585 5584 5587 5591 5599 5600 5599 5600 5602 5605 5608 5615 5619 5625 5630 5638 5645 5651 5656 5660 5664 5669 5673 5677 5682 5686 5688 5689 5690 5690 5691 5690 5688 5687 5686 5684 5684 5682 5681 5681 5681 5680 5679 5678
5566 5564 5566 5581 5582 5580 5569 5572 5585 5589 5587 5586 5588 5589 5591 5597 5603 5610 5614 5619 5627 5633 5639 5644 5648 5653 5657 5663 5667 5673 5676 5680 5682 5683 5684 5684 5685 5684 5683 5681 5680 5679 5678 5677 5677 5676 5674 5673 5671
5559 5555 5559 5568 5573 5569 5562 5564 5575 5575 5575 5575 5577 5579 5581 5585 5592 5599 5604 5609 5615 5621 5627 5632 5637 5641 5646 5652 5657 5663 5667 5671 5675 5677 5678 5679 5679 5679 5678 5677 5675 5674 5673 5672 5672 5671 5669 5666 5665
5546 5545 5549 5550 5558 5555 5551 5556 5565 5566 5565 5564 5566 5569 5572 5575 5582 5588 5593 5598 5604 5610 5616 5621 5626 5630 5635 5640 5645 5651 5657 5662 5667 5672 5675 5674 5674 5674 5674 5672 5671 5669 5667 5666 5666 5665 5663 5662 5660
5540 5536 5535 5543 5548 5543 5542 5547 5555 5558 5557 5558 5559 5561 5563 5566 5573 5578 5583 5587 5592 5598 5603 5609 5613 5618 5624 5629 5634 5639 5646 5652 5658 5664 5668 5668 5668 5668 5669 5667 5666 5664 5663 5662 5661 5660 5658 5656 5655
5531 5526 5529 5538 5541 5535 5533 5540 5548 5552 5553 5555 5555 5555 5555 5557 5561 5566 5572 5577 5581 5586 5592 5597 5602 5608 5614 5620 5626 5631 5637 5643 5648 5654 5658 5662 5663 5663 5663 5663 5661 5660 5658 5656 5656 5655 5652 5650 5650
5527 5521 5522 5521 5525 5526 5521 5532 5544 5552 5552 5552 5551 5550 5549 5550 5551 5556 5561 5566 5570 5576 5582 5587 5593 5599 5604 5610 5615 5620 5626 5632 5637 5645 5651 5655 5657 5657 5658 5658 5657 5656 5654 5653 5652 5651 5649 5646 5644
5516 5522 5517 5512 5501 5500 5507 5497 5531 5539 5544 5545 5542 5540 5540 5540 5542 5546 5551 5556 5561 5566 5572 5576 5582 5589 5595 5601 5606 5612 5618 5625 5633 5640 5644 5646 5650 5651 5652 5652 5652 5651 5651 5650 5649 5648 5646 5644 5640
5513 5513 5507 5503 5494 5489 5498 5485 5516 5534 5535 5535 5534 5533 5533 5533 5535 5537 5541 5547 5552 5557 5561 5566 5572 5579 5587 5593 5598 5605 5612 5619 5624 5631 5636 5639 5643 5646 5647 5647 5646 5646 5647 5647 5646 5644 5643 5641 5639
5508 5502 5499 5499 5487 5473 5496 5488 5504 5521 5525 5526 5527 5527 5526 5526 5527 5529 5533 5538 5543 5547 5552 5555 5564 5571 5579 5585 5591 5598 5605 5611 5616 5623 5629 5633 5637 5639 5641 5642 5641 5642 5643 5644 5643 5642 5640 5639 5637
5496 5476 5462 5463 5465 5475 5506 5499 5505 5518 5521 5520 5519 5518 5517 5516 5517 5519 5522 5526 5533 5539 5544 5548 5555 5564 5572 5578 5584 5591 5600 5605 5611 5618 5624 5628 5630 5633 5636 5638 5639 5638 5639 5640 5639 5638 5637 5636 5634
5483 5471 5449 5443 5456 5476 5491 5491 5508 5518 5516 5514 5513 5512 5510 5509 5509 5511 5515 5518 5523 5530 5536 5542 5549 5556 5565 5572 5578 5586 5593 5599 5606 5614 5619 5623 5626 5630 5632 5634 5634 5634 5635 5636 5636 5634 5633 5633 5631
5477 5469 5467 5448 5445 5446 5468 5492 5504 5510 5506 5504 5503 5501 5499 5500 5502 5504 5508 5512 5517 5521 5527 5534 5542 5549 5558 5565 5572 5579 5587 5594 5602 5609 5614 5619 5622 5625 5627 5629 5630 5630 5631 5632 5632 5632 5631 5629 5628
5475 5469 5452 5436 5427 5436 5462 5479 5486 5492 5492 5493 5492 5491 5491 5492 5493 5496 5500 5505 5510 5515 5520 5526 5534 5543 5551 5559 5567 5575 5583 5591 5597 5603 5609 5615 5619 5621 5624 5625 5625 5626 5627 5629 5629 5629 5628 5626 5625
5464 5457 5448 5435 5432 5426 5434 5463 5491 5484 5483 5481 5482 5483 5484 5484 5485 5487 5492 5497 5503 5509 5514 5520 5527 5536 5542 5550 5560 5568 5578 5586 5592 5598 5606 5611 5614 5617 5620 5622 5623 5623 5624 5626 5626 5626 5625 5623 5621
5464 5455 5441 5421 5419 5423 5421 5449 5483 5477 5475 5474 5473 5474 5476 5477 5478 5480 5483 5489 5494 5501 5508 5514 5520 5527 5534 5542 5552 5562 5572 5579 5585 5592 5600 5606 5610 5614 5617 5618 5620 5621 5621 5622 5622 5622 5622 5621 5618